Location: Acheville
(50.3840°N, 2.8827°E)
Time: 09:17:14
(UTC+00:00)

Cosmos 1697 Rocket - Pass Details

Date: 24 October 2021
Orbit: 834 x 842 km, 71.0° (Epoch: 01 December)

Event Time Altitude Azimuth Distance (km) Brightness Sun altitude
Rises 17:09:02 0° 224° (SW) 3,388 6.9 -5.5°
Reaches altitude 10° 17:11:32 10° 229° (SW) 2,456 6.2 -5.9°
Maximum altitude 17:17:02 52° 306° (NW) 1,036 3.5 -6.8°
Drops below altitude 10° 17:22:33 10° 23° (NNE) 2,466 4.8 -7.6°
Sets 17:25:05 0° 28° (NNE) 3,402 5.5 -8.0°
